Cloud_Cover
100 100 91 64 17 76 100 100 100 100 100 100 100 100 100 100 100 100 100 100 100 100 100 100 100 100 100 100 100 100 100 100 100 100 100 100 100 100 100 100 100 100 100
100 100 100 100 100 100 100 100 100 100 100 100 100 100 100 100 100 100 100 100 100 100 100 100 100 100 100 100 100 100 100 100 100 100 100 100 100 100 100 100 100 100 100
100 100 100 100 100 100 100 100 100 100 100 100 100 100 100 100 100 100 100 100 100 100 100 100 100 100 100 100 100 100 100 100 100 100 100 100 100 100 100 100 100 100 100
100 100 100 100 100 100 100 100 100 100 100 100 100 100 100 100 100 100 100 100 100 100 100 100 100 100 100 100 100 100 100 100 100 100 100 100 100 100 100 100 100 100 100
100 100 100 100 100 100 100 100 100 100 100 100 100 100 100 100 100 100 100 100 100 100 100 100 100 100 100 100 100 100 100 100 100 100 100 100 100 100 100 100 100 100 100
100 100 100 100 100 100 100 100 100 100 100 100 100 100 100 100 100 100 100 100 100 100 100 100 100 100 100 100 100 100 100 100 100 100 100 100 100 100 100 100 100 100 100
100 100 100 100 100 100 100 100 100 100 100 100 100 100 100 100 100 100 100 100 100 100 100 100 100 100 100 100 100 100 100 100 100 100 100 100 100 100 100 100 100 100 100
100 100 100 100 100 100 100 100 100 100 100 100 100 100 100 100 100 100 100 100 100 100 100 100 100 100 100 100 100 100 100 100 100 100 100 100 100 100 100 100 100 100 100
100 100 100 100 100 100 100 100 100 100 100 100 100 100 100 100 100 100 100 100 100 100 100 100 100 100 100 100 100 100 100 100 100 100 100 100 100 100 100 100 100 85 98
100 100 100 100 100 100 100 100 100 100 100 100 100 100 100 100 99 100 100 100 100 100 100 100 100 100 100 100 100 100 100 100 100 100 100 100 100 100 100 100 100 46 100
100 100 100 100 100 100 100 100 100 100 100 100 100 96 95 88 96 100 100 100 100 100 100 100 100 100 100 100 100 100 100 100 100 100 100 100 100 100 100 100 100 88 75
100 100 100 99 100 100 97 100 100 100 100 100 99 91 99 100 100 100 100 100 100 100 100 100 100 100 100 100 100 100 100 100 100 100 98 96 100 100 100 99 100 98 65
100 99 100 100 100 100 100 100 100 100 100 100 100 100 100 100 95 92 99 99 100 100 100 100 100 100 100 100 100 100 100 100 100 100 100 100 100 100 100 100 47 6 5
92 98 100 100 100 100 100 100 100 100 100 100 100 100 100 100 100 100 100 100 100 100 100 100 100 100 100 100 100 100 100 100 100 100 100 100 100 68 5 5 5 5 5
87 85 98 100 100 100 100 100 100 100 100 100 100 100 100 100 100 100 100 100 100 100 100 100 100 100 100 100 100 100 100 100 100 99 62 5 5 5 5 5 5 5 5
33 43 84 99 100 95 100 100 100 100 100 100 100 100 100 100 100 100 100 100 100 100 100 100 100 100 100 100 96 96 42 14 4 5 5 5 5 5 5 5 5 5 47
5 6 81 55 19 55 76 100 100 100 100 100 100 100 100 100 100 100 100 100 100 100 100 98 75 59 7 1 4 5 5 5 5 5 5 5 5 5 5 5 5 5 51
5 5 5 5 5 5 5 5 5 5 24 74 84 92 78 93 100 100 96 90 87 91 10 5 5 5 5 5 5 5 5 5 5 5 5 47 58 8 5 13 41 59 58
5 5 5 5 5 5 5 5 5 17 64 76 98 67 79 93 99 100 100 21 52 69 5 5 5 5 5 5 5 5 32 30 42 56 85 87 100 49 86 74 78 80 85
5 5 5 5 5 9 12 5 5 11 8 47 90 71 49 67 84 84 44 11 100 70 5 5 5 5 5 5 5 5 64 87 99 100 100 100 100 100 100 99 98 100 100
5 37 7 60 54 5 5 5 5 5 5 50 57 17 92 72 79 63 92 88 97 11 5 8 5 5 28 9 61 99 88 91 100 100 100 100 100 100 100 100 100 100 100
5 22 68 56 73 94 52 19 31 26 7 32 10 14 96 100 94 95 95 82 44 23 81 20 34 58 52 81 100 100 92 100 100 99 100 100 100 100 100 100 100 100 100
5 27 98 100 100 100 100 100 96 85 67 54 47 76 97 96 100 100 97 84 60 24 7 35 85 100 98 100 100 98 98 100 100 100 100 100 100 100 100 100 100 100 100
78 100 100 100 100 100 100 100 100 100 98 76 79 90 93 98 88 59 74 85 99 96 98 100 100 100 100 100 100 100 100 100 100 100 100 100 100 100 100 100 100 100 100
100 100 100 100 100 100 100 100 100 100 100 99 89 73 71 87 90 94 92 97 99 100 100 100 100 100 100 100 100 100 100 100 100 100 100 100 100 100 100 100 100 100 100
100 100 100 100 100 100 100 99 97 100 82 31 60 77 100 100 93 99 100 100 100 100 100 100 100 100 100 100 100 100 100 100 100 100 100 100 100 100 100 100 100 100 100